| time (UTC) | temp F | wind direction | speed MPH | gust MPH | rain 1hr in | rain 24hr in | rain mn in | humidity % | barometer mb |
| 20260504023010 | 63 | 221 | 3.0 | 8.0 | 0.00 | 0.00 | 0.00 | 53 | 1004.6 |
| 20260504021512 | 63 | 236 | 4.0 | 9.0 | 0.00 | 0.00 | 0.00 | 52 | 1004.6 |
| 20260504020015 | 64 | 249 | 3.0 | 9.0 | 0.00 | 0.00 | 0.00 | 52 | 1004.5 |
| 20260504014517 | 64 | 221 | 2.0 | 12.0 | 0.00 | 0.00 | 0.00 | 51 | 1004.2 |
| 20260504013009 | 64 | 236 | 3.0 | 10.0 | 0.00 | 0.00 | 0.00 | 50 | 1004.1 |
| 20260504011508 | 65 | 246 | 4.0 | 11.0 | 0.00 | 0.00 | 0.00 | 49 | 1003.9 |
| 20260504010007 | 66 | 225 | 4.0 | 12.0 | 0.00 | 0.00 | 0.00 | 48 | 1003.9 |
| 20260504004516 | 66 | 238 | 4.0 | 10.0 | 0.00 | 0.00 | 0.00 | 46 | 1004.0 |
| 20260504003005 | 67 | 233 | 5.0 | 11.0 | 0.00 | 0.00 | 0.00 | 45 | 1003.9 |
| 20260504001505 | 68 | 257 | 4.0 | 9.0 | 0.00 | 0.00 | 0.00 | 44 | 1003.9 |
| 20260504000004 | 68 | 268 | 3.0 | 11.0 | 0.00 | 0.00 | 0.00 | 43 | 1003.9 |
| 20260503234504 | 68 | 212 | 5.0 | 13.0 | 0.00 | 0.00 | 0.00 | 42 | 1003.9 |
| 20260503233007 | 68 | 203 | 8.0 | 17.0 | 0.00 | 0.00 | 0.00 | 42 | 1003.9 |
| 20260503231601 | 68 | 261 | 5.0 | 19.0 | 0.00 | 0.00 | 0.00 | 42 | 1004.1 |
| 20260503224556 | 67 | 234 | 9.0 | 19.0 | 0.00 | 0.00 | 0.00 | 42 | 1004.3 |
| 20260503223054 | 67 | 228 | 8.0 | 18.0 | 0.00 | 0.00 | 0.00 | 42 | 1004.5 |
| 20260503221558 | 67 | 217 | 6.0 | 16.0 | 0.00 | 0.00 | 0.00 | 42 | 1004.7 |
| 20260503220050 | 66 | 248 | 7.0 | 16.0 | 0.00 | 0.00 | 0.00 | 43 | 1004.9 |
| 20260503214550 | 66 | 251 | 10.0 | 20.0 | 0.00 | 0.00 | 0.00 | 41 | 1005.0 |
| 20260503213048 | 67 | 230 | 6.0 | 18.0 | 0.00 | 0.00 | 0.00 | 41 | 1005.1 |
| 20260503211544 | 65 | 243 | 9.0 | 25.0 | 0.00 | 0.00 | 0.00 | 41 | 1005.5 |
| 20260503210042 | 64 | 216 | 14.0 | 28.0 | 0.00 | 0.00 | 0.00 | 40 | 1005.8 |
| 20260503204543 | 64 | 221 | 6.0 | 29.0 | 0.00 | 0.00 | 0.00 | 41 | 1006.1 |
| 20260503203052 | 64 | 174 | 10.0 | 27.0 | 0.00 | 0.00 | 0.00 | 42 | 1006.4 |
| 20260503201536 | 64 | 188 | 14.0 | 25.0 | 0.00 | 0.00 | 0.00 | 42 | 1006.5 |
| 20260503200033 | 64 | 241 | 6.0 | 24.0 | 0.00 | 0.00 | 0.00 | 45 | 1006.8 |
| 20260503194529 | 62 | 240 | 11.0 | 24.0 | 0.00 | 0.00 | 0.00 | 49 | 1007.0 |
| 20260503193026 | 61 | 221 | 14.0 | 22.0 | 0.00 | 0.00 | 0.00 | 51 | 1007.3 |
| 20260503191529 | 60 | 225 | 10.0 | 18.0 | 0.00 | 0.00 | 0.00 | 51 | 1007.4 |
| 20260503190023 | 58 | 193 | 13.0 | 21.0 | 0.00 | 0.00 | 0.00 | 51 | 1007.8 |
| 20260503184517 | 57 | 165 | 12.0 | 20.0 | 0.00 | 0.00 | 0.00 | 55 | 1008.0 |
| 20260503183017 | 56 | 206 | 10.0 | 18.0 | 0.00 | 0.00 | 0.00 | 57 | 1008.4 |
| 20260503181510 | 55 | 176 | 9.0 | 20.0 | 0.00 | 0.00 | 0.00 | 59 | 1008.8 |
| 20260503180010 | 55 | 181 | 9.0 | 17.0 | 0.00 | 0.00 | 0.00 | 59 | 1009.4 |
| 20260503174505 | 55 | 181 | 11.0 | 21.0 | 0.00 | 0.00 | 0.00 | 61 | 1010.1 |
| 20260503173003 | 54 | 178 | 9.0 | 22.0 | 0.00 | 0.00 | 0.00 | 62 | 1010.5 |
| 20260503171601 | 54 | 249 | 12.0 | 24.0 | 0.00 | 0.00 | 0.00 | 62 | 1010.8 |
| 20260503090104 | 47 | 214 | 3.0 | 9.0 | 0.00 | 0.00 | 0.00 | 52 | 1012.8 |
| 20260503081553 | 48 | 205 | 2.0 | 9.0 | 0.00 | 0.00 | 0.00 | 50 | 1013.0 |
| 20260503071605 | 47 | 208 | 1.0 | 5.0 | 0.00 | 0.00 | 0.00 | 51 | 1013.2 |
| 20260503054549 | 48 | 205 | 2.0 | 6.0 | 0.00 | 0.00 | 0.00 | 49 | 1013.9 |
| 20260503053034 | 48 | 212 | 1.0 | 5.0 | 0.00 | 0.00 | 0.00 | 50 | 1014.0 |
| 20260503051534 | 48 | 214 | 1.0 | 4.0 | 0.00 | 0.00 | 0.00 | 49 | 1014.2 |
| 20260503050036 | 48 | 226 | 1.0 | 4.0 | 0.00 | 0.00 | 0.00 | 49 | 1014.3 |
| 20260503044530 | 48 | 229 | 2.0 | 5.0 | 0.00 | 0.00 | 0.00 | 49 | 1014.3 |
| 20260503043030 | 48 | 233 | 2.0 | 5.0 | 0.00 | 0.00 | 0.00 | 50 | 1014.3 |
| 20260503041535 | 48 | 247 | 1.0 | 4.0 | 0.00 | 0.00 | 0.00 | 50 | 1014.4 |
| 20260503040025 | 48 | 212 | 1.0 | 3.0 | 0.00 | 0.00 | 0.00 | 49 | 1014.5 |
| 20260503034526 | 49 | 255 | 1.0 | 3.0 | 0.00 | 0.00 | 0.00 | 49 | 1014.4 |
| 20260503033024 | 49 | 214 | 2.0 | 9.0 | 0.00 | 0.00 | 0.00 | 48 | 1014.5 |
| 20260503031524 | 49 | 222 | 1.0 | 5.0 | 0.00 | 0.00 | 0.00 | 48 | 1014.6 |
| 20260503030024 | 50 | 226 | 1.0 | 4.0 | 0.00 | 0.00 | 0.00 | 47 | 1014.7 |
| 20260503024523 | 50 | 233 | 2.0 | 8.0 | 0.00 | 0.00 | 0.00 | 47 | 1014.7 |